SL-14 DEB

Satellite information

Favourite Embed

Satellite Type and Status

DEBRISIN ORBIT

Key statistics

Satellite SL-14 DEB at a glance.

Uptime

17175

Days in orbit

Revolutions

≈ 12.9

Per day

Orbit

LEO

Low Earth Orbit

Inclination

82.3

Latest

Satellite identification and parameters

Extended collection of information and parameters for SL-14 DEB.

Object identification

Identified? True

Debris? True

Object name: SL-14 DEB

International designator: 1978-100G

Object number (NORAD): 19134

Object ID (CCSDS): 19134

Country: COMMONWEALTH OF INDEPENDENT STATES (CIS)

Current information (Y/N): Y

RCS size: MEDIUM

Orbital parameters

Period: 111.618 minutes

Inclination: 82.3053 deg

SMA: 7679.223 km

Apoapsis: 1382.149 km

Periapsis: 1220.027 km

RAAN: 239.309 deg

Eccentricy: 0.01055585

Argument of periapsis: 300.308 deg

Mean anomaly: 182.6021 deg

Mean motion: 12.90110324 rev/day

Mean motion (dot): 0.00005039 rev/day2

B* drag term: 0.018752133 1/REarth

Two-line elements (TLE)

Creation date: Nov. 2, 2025, 5:34 p.m.

Reference frame: TEME

Reference center: EARTH

Epoch: Nov. 2, 2025, 5:42 a.m. UTC

TLE line 0: 0 SL-14 DEB

TLE line 1: 1 19134U 78100G 25306.23791935 .00005039 00000-0 18752-1 0 9990

TLE line 2: 2 19134 82.3053 239.3090 0105558 300.3080 182.6021 12.90110324121338

Live tracking on map

Real-time ground track for satellite SL-14 DEB.

In-orbit conjunctions

A list of the most updated potential collisions computed for object SL-14 DEB.

Target Orbit TCA Probability of collision Miss distance Type
COSMOS 89 LEO 2025-10-12 22:20:52 0.0002400968 139.0 (m) PAYLOAD
COSMOS 1156 LEO 2024-12-01 19:37:49 0.0001323874 997.0 (m) PAYLOAD

Associated space launch

Mass model of the Meteor-2 meteorological satellite

SL-14 DEB was lifted into orbit during the mission ‘Tsiklon-3 | Meteor-2-GVM’, on board a Tsiklon-3 space rocket.

The launch took place on Oct. 26, 1978, 7 a.m. from 32/2.

For more information about the launch, click the button.

Launch to space Tsiklon-3 | Meteor-2-GVM
Tsiklon-3 | Meteor-2-GVM

Agency: N/A

Status: Launch Successful

Launch date: Oct. 26, 1978, 7 a.m. UTC

Rocket: Tsiklon-3

Launch pad: 32/2

Location: Plesetsk Cosmodrome, Russian Federation

...

Latest news about this satellite

There are no fresh news available about this satellite. Check back as we update our databases every day.


Newsletter sign-up

Weekly statistics, charts and insights to help you stay on top of the space industry.